TimeMDT,TemperatureF,Dew PointF,Humidity,Sea Level PressureIn,VisibilityMPH,Wind Direction,Wind SpeedMPH,Gust SpeedMPH,PrecipitationIn,Events,Conditions,WindDirDegrees,DateUTC
12:15 AM,32.0,28.4,87,29.86,10.0,Calm,Calm,-,N/A,,Overcast,0,2013-04-10 06:15:00
12:35 AM,32.0,28.4,87,29.86,10.0,Calm,Calm,-,N/A,,Overcast,0,2013-04-10 06:35:00
12:55 AM,32.0,28.4,87,29.86,10.0,WSW,8.1,-,N/A,,Overcast,250,2013-04-10 06:55:00
1:15 AM,32.0,26.6,80,29.86,5.0,SW,9.2,-,N/A,,Overcast,230,2013-04-10 07:15:00
1:35 AM,32.0,28.4,87,29.87,10.0,SW,8.1,-,N/A,,Overcast,230,2013-04-10 07:35:00
1:55 AM,32.0,28.4,87,29.86,10.0,SW,8.1,-,N/A,,Overcast,230,2013-04-10 07:55:00
2:15 AM,32.0,28.4,87,29.86,10.0,SW,12.7,-,N/A,,Overcast,230,2013-04-10 08:15:00
2:35 AM,32.0,28.4,87,29.85,6.0,SW,11.5,-,N/A,,Overcast,230,2013-04-10 08:35:00
2:55 AM,32.0,28.4,87,29.85,5.0,SW,11.5,17.3,N/A,,Overcast,230,2013-04-10 08:55:00
3:15 AM,32.0,28.4,87,29.85,7.0,SW,13.8,-,N/A,,Overcast,230,2013-04-10 09:15:00
3:35 AM,30.2,28.4,93,29.85,10.0,WSW,13.8,-,N/A,,Overcast,240,2013-04-10 09:35:00
3:55 AM,30.2,28.4,93,29.85,10.0,WSW,11.5,-,N/A,,Overcast,240,2013-04-10 09:55:00
4:15 AM,30.2,28.4,93,29.85,10.0,WSW,10.4,-,N/A,,Overcast,240,2013-04-10 10:15:00
4:35 AM,30.2,26.6,86,29.85,10.0,WSW,9.2,-,N/A,,Overcast,240,2013-04-10 10:35:00
4:55 AM,30.2,26.6,86,29.84,10.0,WSW,12.7,-,N/A,,Mostly Cloudy,250,2013-04-10 10:55:00
5:15 AM,30.2,26.6,86,29.85,10.0,WSW,10.4,-,N/A,,Mostly Cloudy,250,2013-04-10 11:15:00
5:35 AM,30.2,26.6,86,29.85,10.0,WSW,10.4,-,N/A,,Overcast,250,2013-04-10 11:35:00
5:55 AM,30.2,24.8,80,29.86,10.0,WSW,12.7,-,N/A,,Overcast,240,2013-04-10 11:55:00
6:15 AM,30.2,24.8,80,29.86,10.0,WSW,12.7,-,N/A,,Overcast,240,2013-04-10 12:15:00
6:35 AM,30.2,24.8,80,29.87,10.0,WSW,11.5,-,N/A,,Overcast,240,2013-04-10 12:35:00
6:55 AM,30.2,24.8,80,29.88,10.0,WSW,10.4,-,N/A,,Overcast,240,2013-04-10 12:55:00
7:15 AM,28.4,24.8,86,29.89,10.0,SW,11.5,-,N/A,,Overcast,230,2013-04-10 13:15:00
7:35 AM,28.4,24.8,86,29.89,10.0,WSW,10.4,-,N/A,,Overcast,240,2013-04-10 13:35:00
7:55 AM,30.2,24.8,80,29.90,10.0,WSW,12.7,-,N/A,,Overcast,240,2013-04-10 13:55:00
8:15 AM,30.2,24.8,80,29.91,10.0,WSW,11.5,-,N/A,,Overcast,240,2013-04-10 14:15:00
8:35 AM,30.2,24.8,80,29.92,10.0,SW,10.4,-,N/A,,Overcast,230,2013-04-10 14:35:00
8:55 AM,30.2,24.8,80,29.92,10.0,SW,10.4,-,N/A,,Overcast,230,2013-04-10 14:55:00
9:15 AM,30.2,24.8,80,29.92,10.0,SW,12.7,-,N/A,,Overcast,220,2013-04-10 15:15:00
9:35 AM,32.0,24.8,75,29.92,10.0,SW,15.0,-,N/A,,Overcast,220,2013-04-10 15:35:00
9:55 AM,33.8,23.0,65,29.92,10.0,SW,13.8,-,N/A,,Overcast,230,2013-04-10 15:55:00
10:15 AM,33.8,23.0,65,29.92,10.0,SW,11.5,16.1,N/A,,Overcast,220,2013-04-10 16:15:00
10:35 AM,33.8,23.0,65,29.92,10.0,WSW,13.8,-,N/A,,Overcast,250,2013-04-10 16:35:00
11:15 AM,33.8,23.0,65,29.92,10.0,WSW,13.8,20.7,N/A,,Overcast,240,2013-04-10 17:15:00
11:35 AM,35.6,23.0,60,29.92,10.0,WSW,11.5,18.4,N/A,,Mostly Cloudy,240,2013-04-10 17:35:00
12:15 PM,37.4,24.8,60,29.91,10.0,WSW,16.1,21.9,N/A,,Overcast,240,2013-04-10 18:15:00
12:35 PM,37.4,23.0,56,29.90,10.0,SW,19.6,24.2,N/A,,Mostly Cloudy,230,2013-04-10 18:35:00
12:55 PM,39.2,24.8,56,29.90,10.0,WSW,13.8,23.0,N/A,,Overcast,240,2013-04-10 18:55:00
1:15 PM,39.2,23.0,52,29.89,10.0,WSW,18.4,23.0,N/A,,Overcast,250,2013-04-10 19:15:00
1:35 PM,39.2,21.2,49,29.89,10.0,West,15.0,19.6,N/A,,Overcast,260,2013-04-10 19:35:00
1:55 PM,41.0,23.0,49,29.88,10.0,WSW,17.3,24.2,N/A,,Overcast,250,2013-04-10 19:55:00
2:15 PM,39.2,23.0,52,29.88,10.0,WSW,18.4,24.2,N/A,,Overcast,240,2013-04-10 20:15:00
2:35 PM,39.2,21.2,49,29.88,10.0,WSW,13.8,23.0,N/A,,Overcast,250,2013-04-10 20:35:00
2:55 PM,39.2,21.2,49,29.87,10.0,West,13.8,21.9,N/A,,Overcast,280,2013-04-10 20:55:00
3:15 PM,39.2,21.2,49,29.87,10.0,West,18.4,21.9,N/A,,Overcast,280,2013-04-10 21:15:00
3:35 PM,41.0,21.2,45,29.86,10.0,West,19.6,24.2,N/A,,Overcast,280,2013-04-10 21:35:00
3:55 PM,42.8,21.2,42,29.85,10.0,West,18.4,26.5,N/A,,Overcast,260,2013-04-10 21:55:00
4:15 PM,42.8,21.2,42,29.85,10.0,West,16.1,25.3,N/A,,Mostly Cloudy,280,2013-04-10 22:15:00
4:35 PM,42.8,19.4,39,29.85,10.0,West,18.4,26.5,N/A,,Mostly Cloudy,280,2013-04-10 22:35:00
4:55 PM,42.8,19.4,39,29.86,10.0,West,17.3,27.6,N/A,,Mostly Cloudy,270,2013-04-10 22:55:00
5:15 PM,42.8,19.4,39,29.86,10.0,West,18.4,24.2,N/A,,Mostly Cloudy,260,2013-04-10 23:15:00
5:35 PM,41.0,19.4,42,29.87,10.0,West,15.0,24.2,N/A,,Scattered Clouds,260,2013-04-10 23:35:00
5:55 PM,41.0,17.6,39,29.87,10.0,West,16.1,26.5,N/A,,Partly Cloudy,280,2013-04-10 23:55:00
6:15 PM,39.2,17.6,42,29.88,10.0,West,13.8,-,N/A,,Clear,280,2013-04-11 00:15:00
6:35 PM,39.2,17.6,42,29.88,10.0,West,13.8,-,N/A,,Clear,270,2013-04-11 00:35:00
6:55 PM,37.4,17.6,45,29.88,10.0,West,15.0,-,N/A,,Clear,270,2013-04-11 00:55:00
7:15 PM,35.6,17.6,48,29.89,10.0,West,11.5,-,N/A,,Clear,270,2013-04-11 01:15:00
7:35 PM,33.8,17.6,52,29.89,10.0,West,10.4,-,N/A,,Clear,260,2013-04-11 01:35:00
7:55 PM,32.0,17.6,55,29.91,10.0,WSW,6.9,-,N/A,,Clear,250,2013-04-11 01:55:00
8:15 PM,32.0,17.6,55,29.92,10.0,SW,9.2,-,N/A,,Scattered Clouds,230,2013-04-11 02:15:00
8:35 PM,32.0,17.6,55,29.93,10.0,SW,6.9,-,N/A,,Mostly Cloudy,230,2013-04-11 02:35:00
8:55 PM,30.2,17.6,60,29.95,10.0,SSW,5.8,-,N/A,,Mostly Cloudy,200,2013-04-11 02:55:00
9:15 PM,28.4,17.6,64,29.95,10.0,SSW,6.9,-,N/A,,Mostly Cloudy,200,2013-04-11 03:15:00
9:35 PM,28.4,17.6,64,29.95,10.0,SSW,6.9,-,N/A,,Overcast,200,2013-04-11 03:35:00
9:55 PM,28.4,17.6,64,29.95,10.0,SSW,5.8,-,N/A,,Overcast,200,2013-04-11 03:55:00
10:15 PM,28.4,17.6,64,29.95,10.0,SSW,4.6,-,N/A,,Mostly Cloudy,200,2013-04-11 04:15:00
10:35 PM,26.6,17.6,69,29.95,10.0,SSE,5.8,-,N/A,,Scattered Clouds,160,2013-04-11 04:35:00
10:55 PM,26.6,17.6,69,29.96,10.0,SE,4.6,-,N/A,,Clear,140,2013-04-11 04:55:00
11:15 PM,26.6,17.6,69,29.95,10.0,SSE,4.6,-,N/A,,Mostly Cloudy,150,2013-04-11 05:15:00
11:35 PM,28.4,17.6,64,29.95,10.0,South,3.5,-,N/A,,Overcast,190,2013-04-11 05:35:00
11:55 PM,28.4,17.6,64,29.95,10.0,Calm,Calm,-,N/A,,Mostly Cloudy,0,2013-04-11 05:55:00